{"data":{"norad_id":68037,"epoch":"2026-09-19T16:03:51.008832Z","epoch_age_seconds":131325,"freshness":"FRESH","line1":"1 68037U 26040Y   26262.66934038  .00026601  00000+0  82266-3 0  9994","line2":"2 68037  97.2849 210.0693 0001262 102.9934 257.1450 15.33473282 31191","mean_motion":15.33473282,"eccentricity":0.0001262,"inclination_deg":97.2849,"raan_deg":210.0693,"arg_perigee_deg":102.9934,"mean_anomaly_deg":257.145,"bstar":0.00082266,"rev_number":3119,"period_min":93.904472735378,"perigee_km":464.59536661871,"apogee_km":466.32269025628,"semimajor_km":6843.5960284375,"source":"CELESTRAK","updated_at":"2026-09-20T09:00:43.746224Z"}}